{"data":{"norad_id":59515,"intl_designator":"2024-073E","name":"STARLINK-31669","alt_names":[],"object_type":"PAYLOAD","status":"ACTIVE","operator":null,"country":"US","launch_date":"2024-04-17","launch_site_code":"AFETR","launch_vehicle":null,"mission":null,"orbit_class":"UNKNOWN","rcs_meters":null,"size_class":null,"mass_kg":null,"dimensions":null,"purposes":["comms"],"wikipedia_slug":null,"has_3d_model":false,"image_url":null,"decayed_at":null,"tle_current":{"epoch":"2026-05-24T13:43:44.274144Z","epoch_age_seconds":105881,"freshness":"FRESH","line1":"1 59515U 24073E   26144.57204021  .00000414  00000+0  24563-4 0  9991","line2":"2 59515  43.0012 249.2371 0001156 267.8660  92.2059 15.27578606117781","mean_motion":15.27578606,"eccentricity":0.0001156,"inclination_deg":43.0012,"raan_deg":249.2371,"arg_perigee_deg":267.866,"mean_anomaly_deg":92.2059,"bstar":2.4563e-5,"rev_number":11778,"period_min":94.266834737276,"perigee_km":482.26011658508,"apogee_km":483.84642377555,"semimajor_km":6861.1902701803,"source":"CELESTRAK","updated_at":"2026-05-25T13:38:18.974479Z"}}}